| time (UTC) | temp F | wind direction | speed MPH | gust MPH | rain 1hr in | rain 24hr in | rain mn in | humidity % | barometer mb |
| 20260903091600 | 56 | 182 | 1.0 | 9.0 | 0.00 | 0.08 | 0.08 | 1 | 1016.6 |
| 20260903090058 | 56 | 171 | 4.0 | 8.0 | 0.00 | 0.08 | 0.08 | 1 | 1016.9 |
| 20260903084551 | 57 | 196 | 3.0 | 14.0 | 0.00 | 0.08 | 0.08 | 1 | 1017.0 |
| 20260903083046 | 57 | 111 | 3.0 | 7.0 | 0.06 | 0.08 | 0.08 | 1 | 1017.0 |
| 20260903081542 | 57 | 121 | 2.0 | 6.0 | 0.08 | 0.08 | 0.08 | 1 | 1017.4 |
| 20260903080037 | 58 | 126 | 3.0 | 9.0 | 0.08 | 0.08 | 0.08 | 1 | 1017.3 |
| 20260903074532 | 58 | 135 | 1.0 | 7.0 | 0.08 | 0.08 | 0.08 | 1 | 1017.4 |
| 20260903073028 | 59 | 118 | 1.0 | 7.0 | 0.01 | 0.01 | 0.01 | 1 | 1017.5 |
| 20260903071524 | 60 | 195 | 2.0 | 10.0 | 0.00 | 0.00 | 0.00 | 1 | 1017.4 |
| 20260903070021 | 59 | 140 | 2.0 | 10.0 | 0.00 | 0.00 | 0.00 | 1 | 1017.1 |
| 20260903064519 | 59 | 109 | 3.0 | 9.0 | 0.00 | 0.00 | 0.00 | 1 | 1017.1 |
| 20260903063028 | 59 | 144 | 5.0 | 14.0 | 0.00 | 0.00 | 0.00 | 1 | 1017.8 |
| 20260903061517 | 59 | 134 | 3.0 | 9.0 | 0.00 | 0.00 | 0.00 | 1 | 1018.2 |
| 20260903060006 | 59 | 167 | 4.0 | 10.0 | 0.00 | 0.00 | 0.00 | 1 | 1018.6 |
| 20260903054501 | 59 | 153 | 5.0 | 8.0 | 0.00 | 0.00 | 0.00 | 1 | 1018.6 |
| 20260903053056 | 59 | 110 | 5.0 | 10.0 | 0.00 | 0.00 | 0.00 | 1 | 1018.9 |
| 20260903051552 | 59 | 81 | 1.0 | 5.0 | 0.00 | 0.00 | 0.00 | 1 | 1019.4 |
| 20260903050108 | 58 | 94 | 2.0 | 10.0 | 0.00 | 0.00 | 0.00 | 1 | 1019.0 |
| 20260903044543 | 58 | 116 | 3.0 | 9.0 | 0.00 | 0.00 | 0.00 | 1 | 1018.9 |
| 20260903043039 | 59 | 105 | 2.0 | 8.0 | 0.00 | 0.00 | 0.00 | 1 | 1019.0 |
| 20260903041534 | 59 | 138 | 3.0 | 8.0 | 0.00 | 0.00 | 0.00 | 1 | 1019.3 |
| 20260903040029 | 59 | 111 | 2.0 | 7.0 | 0.00 | 0.00 | 0.00 | 1 | 1019.4 |
| 20260903034529 | 59 | 117 | 0.0 | 7.0 | 0.00 | 0.00 | 0.00 | 1 | 1019.7 |
| 20260903033021 | 59 | 143 | 4.0 | 9.0 | 0.00 | 0.00 | 0.00 | 1 | 1019.7 |
| 20260903031518 | 59 | 131 | 4.0 | 8.0 | 0.00 | 0.00 | 0.00 | 1 | 1020.1 |
| 20260903030015 | 60 | 141 | 3.0 | 8.0 | 0.00 | 0.00 | 0.00 | 1 | 1020.3 |
| 20260903024508 | 60 | 148 | 1.0 | 7.0 | 0.00 | 0.00 | 0.00 | 1 | 1020.2 |
| 20260903023004 | 60 | 130 | 4.0 | 11.0 | 0.00 | 0.00 | 0.00 | 5 | 1020.0 |
| 20260903021600 | 60 | 138 | 4.0 | 11.0 | 0.00 | 0.00 | 0.00 | 9 | 1020.1 |
| 20260903020055 | 60 | 145 | 6.0 | 12.0 | 0.00 | 0.00 | 0.00 | 18 | 1020.2 |
| 20260903014552 | 61 | 126 | 5.0 | 12.0 | 0.00 | 0.00 | 0.00 | 28 | 1020.1 |
| 20260903013046 | 61 | 149 | 6.0 | 15.0 | 0.00 | 0.00 | 0.00 | 34 | 1020.1 |
| 20260903011556 | 61 | 144 | 4.0 | 14.0 | 0.00 | 0.00 | 0.00 | 44 | 1020.3 |
| 20260903010037 | 61 | 134 | 5.0 | 11.0 | 0.00 | 0.00 | 0.00 | 51 | 1020.2 |
| 20260903004532 | 61 | 127 | 6.0 | 12.0 | 0.00 | 0.00 | 0.00 | 53 | 1020.1 |
| 20260903003028 | 61 | 174 | 5.0 | 12.0 | 0.00 | 0.00 | 0.00 | 50 | 1019.8 |
| 20260903001523 | 61 | 109 | 3.0 | 10.0 | 0.00 | 0.00 | 0.00 | 51 | 1019.7 |
| 20260903000021 | 61 | 146 | 5.0 | 14.0 | 0.00 | 0.00 | 0.00 | 53 | 1019.8 |
| 20260902234517 | 62 | 139 | 5.0 | 9.0 | 0.00 | 0.00 | 0.00 | 55 | 1020.1 |
| 20260902233010 | 62 | 151 | 6.0 | 9.0 | 0.00 | 0.00 | 0.00 | 57 | 1020.4 |
| 20260902231511 | 62 | 140 | 5.0 | 11.0 | 0.00 | 0.00 | 0.00 | 58 | 1020.8 |
| 20260902230100 | 63 | 138 | 4.0 | 9.0 | 0.00 | 0.00 | 0.00 | 60 | 1020.7 |
| 20260902224601 | 63 | 168 | 5.0 | 10.0 | 0.00 | 0.00 | 0.00 | 61 | 1021.1 |
| 20260902223054 | 63 | 146 | 3.0 | 10.0 | 0.00 | 0.00 | 0.00 | 62 | 1021.1 |
| 20260902221551 | 64 | 144 | 4.0 | 9.0 | 0.00 | 0.00 | 0.00 | 63 | 1021.3 |
| 20260902220047 | 64 | 124 | 4.0 | 11.0 | 0.00 | 0.00 | 0.00 | 63 | 1021.3 |
| 20260902214543 | 64 | 160 | 5.0 | 10.0 | 0.00 | 0.00 | 0.00 | 63 | 1021.2 |
| 20260902213046 | 65 | 162 | 3.0 | 10.0 | 0.00 | 0.00 | 0.00 | 64 | 1021.3 |
| 20260902211540 | 65 | 163 | 3.0 | 11.0 | 0.00 | 0.00 | 0.00 | 64 | 1021.4 |
| 20260902210030 | 66 | 141 | 6.0 | 12.0 | 0.00 | 0.00 | 0.00 | 63 | 1021.4 |
| 20260902204525 | 67 | 142 | 2.0 | 9.0 | 0.00 | 0.00 | 0.00 | 63 | 1021.3 |
| 20260902203020 | 66 | 190 | 5.0 | 12.0 | 0.00 | 0.00 | 0.00 | 63 | 1021.3 |
| 20260902201518 | 66 | 134 | 4.0 | 12.0 | 0.00 | 0.00 | 0.00 | 63 | 1021.6 |
| 20260902200012 | 67 | 143 | 4.0 | 7.0 | 0.00 | 0.00 | 0.00 | 63 | 1021.7 |
| 20260902194509 | 67 | 187 | 5.0 | 10.0 | 0.00 | 0.00 | 0.00 | 63 | 1021.7 |
| 20260902193003 | 67 | 186 | 5.0 | 11.0 | 0.00 | 0.00 | 0.00 | 63 | 1022.1 |
| 20260902191558 | 67 | 154 | 2.0 | 9.0 | 0.00 | 0.00 | 0.00 | 63 | 1022.2 |
| 20260902190055 | 67 | 190 | 1.0 | 6.0 | 0.00 | 0.00 | 0.00 | 62 | 1022.4 |
| 20260902184557 | 67 | 163 | 3.0 | 7.0 | 0.00 | 0.00 | 0.00 | 62 | 1022.2 |
| 20260902183044 | 68 | 144 | 2.0 | 10.0 | 0.00 | 0.00 | 0.00 | 62 | 1022.0 |
| 20260902181543 | 68 | 71 | 3.0 | 7.0 | 0.00 | 0.00 | 0.00 | 62 | 1021.9 |
| 20260902180043 | 68 | 79 | 3.0 | 9.0 | 0.00 | 0.00 | 0.00 | 61 | 1022.1 |
| 20260902174531 | 67 | 112 | 4.0 | 9.0 | 0.00 | 0.00 | 0.00 | 62 | 1022.5 |
| 20260902173028 | 67 | 162 | 1.0 | 7.0 | 0.00 | 0.00 | 0.00 | 62 | 1022.6 |
| 20260902171523 | 66 | 153 | 1.0 | 8.0 | 0.00 | 0.00 | 0.00 | 61 | 1022.7 |
| 20260902170020 | 66 | 173 | 1.0 | 8.0 | 0.00 | 0.00 | 0.00 | 58 | 1022.7 |
| 20260902164513 | 66 | 245 | 2.0 | 6.0 | 0.00 | 0.00 | 0.00 | 58 | 1022.8 |
| 20260902163010 | 66 | 202 | 2.0 | 7.0 | 0.00 | 0.00 | 0.00 | 59 | 1022.8 |
| 20260902161508 | 66 | 143 | 1.0 | 10.0 | 0.00 | 0.00 | 0.00 | 56 | 1023.0 |
| 20260902160001 | 65 | 105 | 1.0 | 10.0 | 0.00 | 0.00 | 0.00 | 55 | 1023.2 |
| 20260902154557 | 65 | 211 | 2.0 | 10.0 | 0.00 | 0.00 | 0.00 | 52 | 1023.3 |
| 20260902153052 | 64 | 147 | 5.0 | 9.0 | 0.00 | 0.00 | 0.00 | 46 | 1023.4 |
| 20260902151547 | 63 | 138 | 1.0 | 5.0 | 0.00 | 0.00 | 0.00 | 35 | 1023.5 |
| 20260902150043 | 63 | 161 | 0.0 | 7.0 | 0.00 | 0.00 | 0.00 | 9 | 1023.7 |
| 20260902144539 | 62 | 162 | 1.0 | 9.0 | 0.00 | 0.00 | 0.00 | 1 | 1023.5 |
| 20260902143034 | 62 | 78 | 0.0 | 8.0 | 0.00 | 0.00 | 0.00 | 1 | 1023.2 |
| 20260902141530 | 61 | 134 | 3.0 | 10.0 | 0.00 | 0.00 | 0.00 | 1 | 1023.0 |
| 20260902140027 | 61 | 142 | 3.0 | 8.0 | 0.00 | 0.00 | 0.00 | 1 | 1022.9 |
| 20260902134535 | 61 | 136 | 3.0 | 8.0 | 0.00 | 0.00 | 0.00 | 1 | 1022.6 |
| 20260902133024 | 60 | 109 | 4.0 | 9.0 | 0.00 | 0.00 | 0.00 | 1 | 1022.6 |
| 20260902131517 | 60 | 120 | 1.0 | 8.0 | 0.00 | 0.00 | 0.00 | 1 | 1022.8 |
| 20260902130015 | 60 | 109 | 2.0 | 4.0 | 0.00 | 0.00 | 0.00 | 1 | 1022.9 |
| 20260902124508 | 60 | 109 | 2.0 | 4.0 | 0.00 | 0.00 | 0.00 | 1 | 1022.9 |
| 20260902123005 | 59 | 118 | 0.0 | 3.0 | 0.00 | 0.00 | 0.00 | 1 | 1022.7 |
| 20260902121612 | 59 | 118 | 1.0 | 3.0 | 0.00 | 0.00 | 0.00 | 1 | 1022.9 |
| 20260902120055 | 59 | 123 | 2.0 | 4.0 | 0.00 | 0.00 | 0.00 | 1 | 1022.9 |
| 20260902114551 | 59 | 125 | 1.0 | 2.0 | 0.00 | 0.00 | 0.00 | 1 | 1022.8 |
| 20260902113052 | 59 | 125 | 1.0 | 3.0 | 0.00 | 0.00 | 0.00 | 1 | 1022.9 |
| 20260902111548 | 59 | 125 | 1.0 | 3.0 | 0.00 | 0.00 | 0.00 | 1 | 1022.7 |
| 20260902110044 | 59 | 125 | 2.0 | 3.0 | 0.00 | 0.00 | 0.00 | 1 | 1022.6 |
| 20260902104538 | 58 | 126 | 2.0 | 4.0 | 0.00 | 0.00 | 0.00 | 1 | 1022.5 |
| 20260902103030 | 58 | 121 | 2.0 | 6.0 | 0.00 | 0.00 | 0.00 | 1 | 1022.3 |
| 20260902101527 | 59 | 123 | 3.0 | 6.0 | 0.00 | 0.00 | 0.00 | 1 | 1022.1 |
| 20260902100021 | 59 | 130 | 3.0 | 5.0 | 0.00 | 0.00 | 0.00 | 1 | 1022.1 |
| 20260902094515 | 60 | 144 | 2.0 | 7.0 | 0.00 | 0.00 | 0.00 | 6 | 1022.0 |
| 20260902093009 | 60 | 150 | 2.0 | 5.0 | 0.00 | 0.00 | 0.00 | 13 | 1021.9 |